Cold Bay, AK

7:36 AM AKDT on September 19, 2017 (GMT -0800)
Cold Bay

Weather History for PACD - October, 2013

Change the Weather History Date:

Saturday, October 19, 2013

  Actual Average Record
Temperature  
Mean Temperature 46 °F 40 °F  
Max Temperature 50 °F 45 °F 55 °F (1957)
Min Temperature 42 °F 35 °F 25 °F (2007)
Degree Days  
Heating Degree Days 19 25  
Month to date heating degree days 331 439  
Since 1 July heating degree days 1460 1785  
Cooling Degree Days 0 0  
Month to date cooling degree days 0 0  
Year to date cooling degree days 0 0  
Moisture  
Dew Point 39 °F    
Average Humidity 0    
Maximum Humidity 0    
Minimum Humidity 0    
Precipitation  
Precipitation 0.32 in 0.16 in 1.40 in (1961)
Month to date precipitation 3.32 2.97  
Year to date precipitation 35.15 30.44  
Snow  
Snow 0.00 in 0.10 in 0.80 in (1966)
Month to date snowfall 0.0 0.8  
Since 1 July snowfall 0.0 0.8  
Since 1 September snowfall 0.0 0.8  
Snow Depth 0.00 in    
Sea Level Pressure  
Sea Level Pressure 29.31 in    
Wind  
Wind Speed 15 mph (SW)    
Max Wind Speed 30 mph    
Max Gust Speed 37 mph    
Visibility 10 miles    
Events Rain    
T = Trace of Precipitation, MM = Missing Value Source: NWS Daily Summary

Daily Weather History Graph

Daily Weather History Graph

Search for Another Location

Airport or City:

Trip Planner

Search our weather history database for the weather conditions in past years. The results will help you decide how hot, cold, wet, or windy it might be!

Date:

Astronomy

Oct. 19, 2013 Rise Set
Actual Time 9:29 AM AKDT 7:40 PM AKDT
Civil Twilight 8:52 AM AKDT 8:17 PM AKDT
Nautical Twilight 8:10 AM AKDT 9:00 PM AKDT
Astronomical Twilight 7:27 AM AKDT 9:42 PM AKDT
Moon 8:01 PM AKDT 10:31 AM AKDT
Length of Visible Light 11h 25m
Length of Day
10h 10m
Full, 99% of the Moon is Illuminated
Oct 19
Full
Oct 26
Last Quarter
Nov 3
New
Nov 9
First Quarter
Nov 17
Full

Hourly Weather History & Observations

Time (AKDT) Temp. Windchill Dew Point Humidity Pressure Visibility Wind Dir Wind Speed Gust Speed Precip Events Conditions
12:53 AM 46.0 °F 43.9 °F 37.0 °F 71% 29.02 in 10.0 mi South 4.6 mph - N/A   Overcast
1:53 AM 48.0 °F - 37.9 °F 68% 29.03 in 10.0 mi SSW 18.4 mph - N/A   Mostly Cloudy
2:53 AM 46.9 °F - 37.0 °F 68% 29.03 in 10.0 mi SW 11.5 mph - N/A   Overcast
3:53 AM 46.9 °F - 37.9 °F 71% 29.07 in 10.0 mi SW 12.7 mph - N/A   Mostly Cloudy
4:53 AM 46.9 °F - 37.9 °F 71% 29.08 in 10.0 mi WSW 13.8 mph - N/A   Overcast
5:53 AM 45.0 °F 39.7 °F 37.9 °F 76% 29.11 in 10.0 mi SW 10.4 mph - 0.03 in   Mostly Cloudy
6:53 AM 46.0 °F 40.2 °F 39.0 °F 76% 29.13 in 10.0 mi SW 12.7 mph - 0.00 in   Mostly Cloudy
7:53 AM 46.0 °F - 37.0 °F 71% 29.15 in 10.0 mi Calm Calm - 0.00 in Rain Light Rain
8:48 AM 44.6 °F 42.2 °F 39.2 °F 81% 29.18 in 9.0 mi West 4.6 mph - 0.03 in Rain Light Rain
8:53 AM 45.0 °F 42.6 °F 39.0 °F 80% 29.18 in 10.0 mi SW 4.6 mph - 0.03 in Rain Light Rain
9:12 AM 44.6 °F 39.2 °F 39.2 °F 81% 29.19 in 10.0 mi SW 10.4 mph - 0.00 in Rain Light Rain
9:39 AM 44.6 °F 38.4 °F 37.4 °F 76% 29.20 in 9.0 mi SW 12.7 mph 25.3 mph 0.01 in Rain Light Rain
9:53 AM 45.0 °F 39.3 °F 39.0 °F 80% 29.21 in 9.0 mi WSW 11.5 mph - 0.01 in Rain Rain
10:00 AM 44.6 °F 39.2 °F 39.2 °F 81% 29.21 in 8.0 mi WSW 10.4 mph - 0.02 in Rain Light Rain
10:39 AM 46.4 °F 39.0 °F 39.2 °F 76% 29.22 in 10.0 mi WSW 19.6 mph 26.5 mph 0.03 in Rain Light Rain
10:53 AM 46.0 °F 38.5 °F 39.0 °F 76% 29.24 in 10.0 mi SW 19.6 mph 26.5 mph 0.03 in Rain Light Rain
11:53 AM 46.0 °F 39.0 °F 39.0 °F 76% 29.27 in 9.0 mi SW 17.3 mph 33.4 mph 0.01 in Rain Light Rain
12:53 PM 46.0 °F 36.9 °F 39.9 °F 79% 29.30 in 9.0 mi WSW 28.8 mph 35.7 mph 0.01 in Rain Light Rain
1:53 PM 46.9 °F - 39.9 °F 77% 29.35 in 10.0 mi SW 24.2 mph 28.8 mph 0.00 in Rain Light Rain
2:53 PM 48.0 °F - 39.9 °F 74% 29.38 in 10.0 mi SW 20.7 mph 25.3 mph 0.00 in   Mostly Cloudy
3:53 PM 50.0 °F - 41.0 °F 71% 29.41 in 10.0 mi SW 21.9 mph - 0.00 in   Mostly Cloudy
4:53 PM 48.0 °F - 39.0 °F 71% 29.43 in 10.0 mi SW 13.8 mph - N/A   Mostly Cloudy
5:11 PM 48.2 °F - 39.2 °F 71% 29.44 in 10.0 mi SW 12.7 mph - N/A   Overcast
5:23 PM 48.2 °F - 39.2 °F 71% 29.44 in 10.0 mi WSW 17.3 mph 20.7 mph N/A   Overcast
5:53 PM 48.9 °F - 39.9 °F 71% 29.45 in 10.0 mi SW 15.0 mph - 0.00 in   Overcast
6:53 PM 45.0 °F 38.2 °F 39.0 °F 80% 29.47 in 10.0 mi West 15.0 mph - 0.00 in   Mostly Cloudy
7:38 PM 44.6 °F 36.9 °F 37.4 °F 76% 29.48 in 3.0 mi SW 18.4 mph 26.5 mph 0.04 in Rain Heavy Rain
7:53 PM 44.1 °F 37.4 °F 37.9 °F 79% 29.50 in 10.0 mi SSW 13.8 mph - 0.06 in Rain Light Rain
8:04 PM 44.6 °F 39.7 °F 37.4 °F 76% 29.50 in 10.0 mi SSW 9.2 mph - 0.00 in   Overcast
8:53 PM 44.1 °F 37.4 °F 39.0 °F 82% 29.52 in 10.0 mi West 13.8 mph - 0.00 in Rain Light Rain
9:27 PM 42.8 °F 35.4 °F 37.4 °F 81% 29.53 in 6.0 mi WSW 15.0 mph 23.0 mph 0.06 in Rain Rain
9:53 PM 43.0 °F 37.2 °F 37.9 °F 82% 29.54 in 10.0 mi WSW 10.4 mph - 0.07 in Rain Light Rain
10:53 PM 43.0 °F 35.7 °F 37.9 °F 82% 29.57 in 8.0 mi SW 15.0 mph - 0.06 in Rain Light Rain
11:06 PM 42.8 °F 35.4 °F 37.4 °F 81% 29.57 in 10.0 mi SW 15.0 mph 23.0 mph 0.01 in Rain Light Rain
11:53 PM 43.0 °F 35.4 °F 37.0 °F 80% 29.57 in 10.0 mi SW 16.1 mph - 0.01 in Rain Light Rain